Theta_e
316 315 315 318 325 337 345 346 343 351 355 355 345 350 354 357 357 354 345 335 328 335 341 343 342 342 340 332 327 326 326 329 331 332 333 334 334 334 335 337 338 337 336 339 339 339 339 337 337
316 316 318 314 328 331 340 341 346 348 353 351 352 354 357 360 351 345 342 337 330 333 336 341 341 341 340 336 330 329 328 327 328 330 332 333 333 333 333 334 335 335 337 337 337 337 335 335 335
317 318 317 317 322 327 336 340 340 346 352 351 355 352 355 356 348 343 344 332 330 330 335 338 340 340 339 337 333 333 334 334 333 331 329 329 330 332 334 334 334 335 334 332 333 334 334 336 338
316 316 312 317 322 322 337 338 339 349 349 349 352 356 352 351 347 346 333 327 327 328 330 333 336 336 336 335 335 335 335 333 331 331 331 331 332 332 332 332 332 334 336 338 339 341 341 341 341
316 310 314 316 316 324 337 338 342 350 352 352 352 358 356 352 350 336 328 328 328 329 328 329 329 330 330 330 329 329 329 329 329 329 331 331 332 332 333 340 344 345 343 340 340 339 336 334 336
314 310 315 318 318 335 342 339 346 350 351 353 354 356 354 349 345 336 336 330 329 329 329 328 328 327 327 327 328 329 331 335 338 337 336 337 338 338 344 342 337 337 334 334 333 329 328 327 333
314 312 317 318 318 340 345 340 347 348 352 355 351 358 353 350 346 346 343 334 333 332 330 329 329 330 330 333 336 337 337 336 333 333 334 336 342 343 342 332 331 327 326 326 325 324 323 322 321
310 310 315 314 315 322 342 342 340 346 347 348 350 357 356 351 348 349 342 338 337 336 335 334 334 335 335 335 336 334 336 334 327 329 329 329 330 330 327 323 321 320 321 321 320 319 319 318 319
310 313 315 318 314 323 340 341 338 336 341 346 348 351 350 352 350 347 344 342 341 338 335 334 334 334 334 332 325 320 319 320 322 321 322 322 320 319 317 316 319 322 322 321 321 320 320 320 320
313 312 316 316 320 338 339 339 339 339 344 346 349 350 352 351 349 347 344 342 340 338 335 332 332 330 328 325 321 319 317 317 319 320 321 322 320 318 319 322 323 325 326 326 325 325 322 323 323
313 316 315 318 329 335 339 337 336 339 347 346 350 353 351 349 349 347 343 338 339 338 333 330 329 328 327 324 323 323 322 321 322 322 323 325 326 326 326 326 326 326 326 327 327 326 326 325 325
318 315 315 316 318 335 339 334 337 339 342 341 347 351 352 350 349 347 343 338 341 342 333 329 329 327 328 327 325 324 324 324 324 324 324 324 325 326 326 326 326 326 326 326 326 326 325 325 326
316 316 314 315 314 327 331 335 337 340 343 344 346 350 352 351 349 349 346 340 343 343 337 330 328 329 329 327 326 325 325 325 325 325 325 325 325 326 327 328 327 327 327 327 327 327 326 326 326
316 316 316 316 314 314 327 334 340 340 345 346 348 349 351 352 349 348 347 344 344 345 338 335 331 329 330 329 326 324 325 326 326 327 328 327 326 327 329 329 328 328 326 324 322 320 318 317 316
318 319 317 317 318 328 333 341 344 341 345 346 347 348 350 350 345 342 346 345 345 347 338 336 334 332 332 331 327 325 326 326 327 328 328 328 328 327 326 323 322 320 318 316 315 314 313 312 312
319 315 317 317 318 332 332 336 337 340 346 347 345 344 343 337 338 338 343 345 344 345 343 341 339 340 340 335 325 326 328 329 330 329 328 325 323 321 319 317 315 314 313 312 311 311 310 309 309
315 319 320 319 316 327 325 327 332 340 345 346 345 342 340 336 328 333 338 345 347 344 345 332 328 337 331 326 327 328 330 328 324 323 321 319 317 315 314 312 311 311 310 309 308 307 307 306 306
320 320 319 320 319 319 322 321 324 339 344 346 344 336 333 332 332 329 331 336 339 335 335 327 328 325 325 326 330 329 326 323 320 319 316 314 313 312 310 309 308 307 307 306 306 305 305 305 305
318 319 319 317 317 320 319 318 319 334 340 340 337 334 328 328 326 325 326 326 325 325 325 326 325 325 326 331 330 328 325 322 320 317 313 312 310 308 307 306 306 306 305 305 305 305 305 305 305
318 319 319 318 319 319 318 319 318 332 340 341 338 335 331 323 322 322 323 324 324 325 324 325 327 328 332 333 330 327 323 318 315 312 310 308 306 306 306 305 305 304 304 305 305 305 305 305 305
319 320 321 320 320 318 318 319 317 321 326 329 328 328 328 323 321 322 324 326 327 327 327 327 326 326 325 324 322 319 316 316 313 311 306 305 305 305 305 304 304 304 304 305 304 304 305 305 305
322 319 320 322 320 321 318 320 318 317 323 323 321 323 325 323 320 323 329 325 322 319 320 318 317 317 317 318 319 316 313 310 307 305 305 305 305 305 305 305 305 304 304 303 303 303 303 304 305
320 319 320 321 319 320 319 319 318 315 318 316 333 335 333 326 321 329 324 319 315 314 314 314 314 313 313 313 311 310 307 305 305 305 305 305 305 305 306 306 305 304 304 304 304 304 304 304 305
320 319 316 315 316 319 318 319 318 323 323 322 335 331 330 328 325 320 316 313 311 312 313 313 313 311 311 310 307 305 305 304 305 304 304 305 305 305 306 306 305 305 304 304 304 304 304 304 304
317 317 319 320 319 321 318 320 319 326 329 336 335 333 330 326 320 316 313 311 311 311 312 313 312 310 309 306 305 304 304 304 304 304 304 304 304 304 305 305 305 305 305 305 304 304 304 304 304
318 317 321 322 321 319 318 323 326 327 331 329 331 329 323 319 316 314 312 310 309 308 308 309 309 305 304 304 304 304 304 304 304 304 304 303 303 303 304 305 305 305 305 305 305 305 305 304 304
320 319 317 318 317 319 318 326 326 327 330 329 326 325 320 316 312 310 309 308 308 307 306 306 305 304 304 304 304 303 303 303 303 303 303 303 303 302 303 303 305 306 306 306 306 306 306 306 306
319 317 321 318 322 323 319 324 328 330 328 329 325 320 317 313 311 309 307 306 306 305 305 305 304 304 304 303 303 303 304 304 304 304 304 303 303 303 303 303 304 306 306 306 306 306 307 307 307
317 318 317 318 320 322 322 321 324 327 327 329 324 319 315 312 311 309 307 306 305 304 303 303 303 303 303 303 303 303 303 304 304 304 303 303 302 302 302 303 304 304 305 305 306 306 306 306 307
321 322 317 319 324 321 322 322 325 326 327 326 323 319 313 311 310 309 308 307 305 303 302 302 302 302 302 303 303 303 303 303 303 302 303 302 300 300 300 303 303 303 304 305 306 306 306 305 306
Wind_Speed
3 4 4 4 4 5 2 3 1 3 1 2 7 3 4 2 1 3 1 12 12 16 14 13 12 11 11 12 13 13 13 13 12 12 11 10 9 7 6 5 4 4 4 5 5 6 6 6 6
5 3 3 2 5 4 4 4 3 4 0 7 9 4 2 1 2 5 9 9 14 14 13 13 12 11 11 12 12 12 12 11 10 9 8 7 6 5 4 3 3 3 4 5 6 7 7 8 8
3 1 3 4 3 4 4 5 5 1 8 3 4 2 2 1 3 10 4 16 16 14 12 12 12 11 11 11 10 10 9 9 8 8 7 5 5 4 3 2 3 4 5 5 6 7 7 8 10
0 5 4 4 1 3 2 6 6 4 2 1 4 5 4 2 8 5 18 18 16 14 13 12 12 12 11 11 11 10 9 8 8 7 6 6 4 3 2 3 3 4 5 5 6 7 7 8 9
4 3 4 3 4 4 3 2 6 5 4 4 3 2 3 6 7 17 19 17 18 17 15 13 12 12 12 11 11 10 9 8 7 6 5 4 3 2 3 4 4 4 4 5 6 7 8 9 10
4 3 5 0 4 3 2 4 6 3 3 4 5 4 1 7 19 20 18 17 16 17 15 14 13 12 11 11 10 9 8 8 7 5 4 3 2 3 4 4 3 4 4 5 6 7 8 9 9
6 4 4 2 3 4 2 5 4 3 4 2 8 4 1 5 20 20 18 18 16 16 15 15 14 13 12 11 10 9 9 9 7 7 6 6 5 5 3 2 3 4 5 6 6 7 7 9 9
5 4 4 3 3 5 5 4 5 5 2 3 4 5 5 8 21 20 18 18 17 16 15 16 15 15 14 13 13 11 9 7 7 7 7 6 7 5 4 4 5 5 6 7 8 8 8 9 12
3 4 1 4 5 4 4 4 3 3 4 1 5 5 7 23 24 22 19 17 17 17 17 17 17 17 16 16 14 12 10 10 9 8 8 6 5 4 4 4 5 7 8 10 12 12 12 14 15
4 4 7 4 5 4 5 5 8 5 6 3 3 5 22 26 23 19 18 20 21 20 20 19 19 20 19 17 15 13 12 11 10 9 7 6 5 4 3 5 6 9 12 14 14 16 18 19 21
3 4 4 4 5 8 9 5 6 6 7 9 11 14 17 20 19 17 19 25 27 23 22 21 21 20 19 18 17 14 12 10 8 6 4 2 1 3 5 7 10 13 14 15 16 18 19 21 23
2 7 5 5 6 6 10 8 7 10 8 10 9 17 18 14 18 20 19 27 27 26 25 24 22 22 20 17 16 13 11 9 6 4 3 5 6 8 10 12 15 17 18 20 21 22 24 25 26
5 4 7 6 7 7 7 9 7 10 5 9 11 17 17 15 18 20 23 26 28 29 28 27 24 24 21 19 17 14 11 9 6 6 8 10 11 13 17 19 20 20 21 22 23 24 25 26 26
5 4 7 3 4 6 9 3 7 8 9 10 16 16 15 16 19 18 21 29 32 33 31 29 28 26 25 21 18 14 11 9 9 8 9 11 13 15 17 17 17 18 18 19 21 23 25 27 28
3 5 7 3 2 3 9 3 13 3 10 11 11 14 15 14 20 26 32 34 37 37 34 33 32 28 25 19 16 14 11 10 7 5 4 6 7 8 10 12 13 15 18 21 23 25 27 29 31
3 5 3 4 2 3 4 8 10 7 12 10 10 11 12 12 21 25 32 35 39 38 37 33 33 31 25 20 16 13 10 7 5 4 1 3 6 9 12 14 17 19 21 22 24 25 29 31 33
7 1 2 8 6 4 2 5 11 7 8 9 12 11 12 11 12 26 36 41 44 42 39 34 30 28 22 19 15 12 11 10 8 4 5 7 9 12 14 17 20 23 24 24 25 28 28 27 26
3 2 3 4 3 2 4 10 5 8 13 17 16 8 10 12 20 26 33 39 36 32 33 28 26 24 22 19 17 17 14 11 6 7 9 11 14 17 20 22 23 24 24 27 27 27 25 25 27
2 3 3 5 5 4 3 5 8 7 8 9 8 9 10 15 8 13 19 20 20 20 23 23 23 19 18 19 19 14 11 6 6 8 11 15 19 22 23 23 22 23 24 25 24 24 24 22 24
3 1 5 5 3 1 4 7 5 6 17 18 13 9 9 4 5 11 17 15 15 16 16 16 17 16 14 13 10 7 8 4 6 11 15 18 21 21 21 21 21 21 22 22 23 22 21 17 15
4 4 4 6 4 4 5 7 7 2 3 3 0 3 6 11 5 7 14 16 18 18 18 19 19 17 15 13 11 10 6 5 9 16 20 21 20 20 20 20 21 22 22 23 22 22 19 20 19
3 6 5 3 2 1 2 4 4 5 2 5 6 9 10 9 5 7 14 18 22 25 26 26 24 22 18 14 12 12 11 9 12 15 17 18 19 21 22 22 23 23 22 22 21 20 22 19 19
7 1 4 3 3 4 5 4 6 6 7 10 12 14 14 11 5 12 19 26 27 28 30 27 25 23 19 18 17 13 10 8 10 13 16 19 22 23 24 24 25 25 23 22 21 22 22 21 20
4 5 8 5 3 3 4 4 5 4 6 2 4 9 11 15 18 20 24 28 31 30 28 24 21 19 16 15 14 10 9 10 11 14 17 21 23 23 23 23 25 25 23 22 23 24 24 24 22
5 6 2 3 4 5 2 3 5 5 4 4 8 10 11 13 14 15 17 21 23 26 24 20 15 13 14 11 11 9 11 11 11 13 17 18 20 23 25 25 25 25 23 23 24 25 26 25 24
4 7 6 5 4 4 3 3 4 2 5 8 9 9 11 12 13 13 15 15 15 15 18 17 17 10 10 10 11 8 10 11 12 13 12 13 16 21 26 25 24 24 23 24 24 25 24 24 25
3 3 3 8 4 3 2 2 5 4 5 6 7 9 9 10 8 10 15 18 21 19 17 18 13 10 11 10 8 9 8 11 11 11 12 13 16 19 22 26 26 24 23 23 24 23 24 25 26
3 4 4 3 5 4 4 2 4 4 5 6 6 7 9 8 7 8 11 15 16 14 13 14 15 13 12 8 6 7 9 9 11 12 14 15 17 20 22 22 25 24 24 25 25 24 25 26 26
2 0 6 6 4 6 3 5 6 7 7 9 8 8 9 8 7 7 8 9 10 10 9 8 11 17 11 7 6 6 7 9 12 14 16 17 18 19 21 20 21 22 23 25 26 26 26 25 26
2 5 5 5 4 2 3 5 3 6 4 8 10 10 7 8 7 6 9 10 7 7 7 9 14 12 9 8 6 6 8 12 14 16 16 17 19 19 19 16 17 19 22 23 23 25 27 27 26
Wind_Direction
340 312 164 112 63 68 246 226 216 212 268 355 127 142 156 34 190 213 70 146 149 156 148 148 145 141 132 125 125 124 125 127 130 132 132 132 131 127 116 104 88 66 46 33 24 18 11 2 356
335 116 114 81 85 84 262 250 165 194 159 108 78 81 51 82 114 107 114 169 153 151 144 146 148 144 137 131 131 128 127 127 129 128 126 125 119 113 106 96 77 43 22 10 6 1 357 351 347
10 120 86 96 122 165 205 231 138 251 148 26 105 101 80 91 33 139 144 153 154 148 141 142 144 142 134 128 126 122 118 116 114 117 122 125 119 111 102 72 34 15 5 357 353 355 353 349 344
131 14 38 78 243 253 183 230 168 123 353 27 95 66 55 324 142 158 147 152 154 145 142 137 137 137 134 131 128 125 121 116 112 111 110 108 111 108 83 53 25 14 10 8 7 3 358 352 344
53 55 51 59 291 270 241 201 158 152 156 119 84 88 63 360 139 147 153 160 155 149 145 143 142 140 135 129 124 119 116 115 114 109 107 113 121 109 82 62 48 33 17 4 358 355 349 345 340
48 95 57 145 277 289 312 127 140 126 92 114 76 84 37 170 152 157 159 160 158 150 149 150 148 141 135 131 128 128 128 125 121 113 110 111 109 111 104 77 42 15 354 343 343 345 354 360 2
108 83 190 172 261 324 203 121 121 108 98 106 132 103 177 200 164 165 162 160 160 156 156 153 151 147 141 139 135 133 131 126 117 103 97 90 97 116 105 56 21 14 10 2 352 349 344 341 338
107 92 126 245 203 253 146 111 122 110 203 101 130 178 192 198 169 164 167 164 162 162 162 156 157 152 147 141 135 134 139 141 129 122 110 93 99 99 78 50 31 9 1 349 339 335 330 333 338
123 65 170 206 167 242 147 126 131 127 113 176 191 163 173 170 170 161 161 164 168 169 166 163 158 153 148 144 140 136 133 127 120 119 110 101 93 98 79 56 38 16 352 335 328 319 309 307 305
91 111 212 211 188 188 185 133 149 139 150 235 169 101 140 163 163 162 169 171 175 171 168 167 163 157 153 150 146 142 137 133 128 126 116 91 76 68 28 1 345 333 325 322 314 313 302 299 299
171 194 200 234 205 163 163 167 172 129 186 210 180 159 157 164 173 179 180 179 177 171 173 172 168 166 163 161 159 157 154 150 149 146 147 123 42 347 321 311 307 302 298 300 295 292 295 292 295
140 237 186 252 204 148 169 142 193 185 192 190 161 163 163 173 185 190 185 182 181 181 182 180 178 178 178 175 171 170 173 176 177 193 236 268 282 293 299 303 303 305 301 299 298 297 295 294 296
190 241 204 247 209 194 148 189 194 218 149 148 147 165 177 185 192 197 195 189 187 189 189 189 189 191 190 188 182 185 190 199 209 238 256 271 283 296 300 302 301 302 302 301 302 301 301 300 299
210 261 275 276 240 198 157 227 152 232 149 159 165 171 187 189 193 194 198 196 196 196 196 196 198 202 199 198 195 193 201 211 237 261 269 273 280 291 296 298 297 298 303 304 305 306 305 303 302
325 329 333 55 160 128 125 101 223 168 156 164 177 180 189 196 195 199 203 202 202 204 202 201 205 206 205 205 202 196 201 210 229 250 263 279 293 309 312 311 308 309 310 309 307 307 308 308 308
34 48 12 303 342 168 71 237 253 194 165 172 185 187 191 204 206 205 208 211 210 210 207 212 213 212 215 209 195 189 191 200 171 163 226 319 326 325 322 319 318 318 316 317 316 317 316 315 314
3 152 344 326 1 126 69 251 257 167 175 186 208 198 203 209 225 208 213 215 216 216 214 214 211 202 198 190 186 173 149 135 117 86 25 360 344 337 334 330 327 324 323 322 323 320 322 322 319
204 110 320 272 259 101 187 249 250 191 180 197 205 201 206 212 223 211 212 216 217 214 211 210 200 186 185 182 171 147 132 115 90 39 9 352 344 337 334 331 329 328 328 329 331 329 329 327 327
138 148 229 246 248 222 229 257 254 211 204 202 206 207 217 224 223 207 210 207 205 204 208 207 198 185 184 168 151 145 129 100 43 10 351 343 339 337 336 334 333 335 336 336 335 332 329 328 327
203 258 276 287 317 160 9 301 298 212 214 202 204 226 242 279 178 154 174 186 185 174 189 188 184 174 175 170 148 137 129 86 19 358 346 343 341 342 344 343 342 340 336 335 334 330 320 315 318
211 191 234 209 331 37 7 325 346 347 63 78 146 250 237 228 183 153 146 144 137 128 129 128 120 115 111 113 111 99 79 13 345 340 343 352 351 354 355 351 343 337 333 331 329 326 317 311 309
295 211 206 231 104 190 47 274 328 352 266 233 4 341 316 299 167 137 110 89 96 101 114 109 103 95 84 74 65 56 46 18 352 346 348 358 6 3 358 352 346 342 339 329 322 316 316 305 298
242 62 145 76 81 62 345 73 270 4 25 9 4 351 352 321 110 83 90 90 84 95 100 94 90 81 69 56 42 24 26 19 357 354 0 6 8 8 2 354 348 346 342 329 322 319 316 305 293
146 65 44 52 70 39 270 123 302 2 290 311 29 25 43 67 80 84 87 93 97 102 95 88 80 72 59 39 29 17 26 25 15 11 10 10 10 2 358 354 354 349 345 334 331 327 318 312 301
79 64 354 3 19 216 318 62 246 305 343 42 41 52 67 82 89 91 93 97 104 107 107 100 75 72 50 44 45 21 32 29 22 15 11 5 359 358 1 359 354 353 347 342 335 325 321 316 304
170 153 152 189 180 245 78 215 256 7 106 81 77 84 87 93 100 105 103 94 84 87 96 96 95 79 62 60 57 37 35 29 18 12 3 355 354 1 8 359 357 357 354 347 344 333 325 318 314
170 170 173 101 10 74 240 315 308 122 92 91 101 107 98 99 95 100 108 117 122 117 113 99 97 83 69 51 60 52 37 28 8 355 350 350 359 355 354 0 1 359 359 1 355 345 340 337 331
143 156 81 23 132 191 293 244 232 199 154 145 141 141 141 134 122 116 118 125 124 119 111 116 113 94 79 70 61 41 16 359 342 338 339 346 344 340 346 349 360 359 4 6 1 353 359 349 340
142 169 59 110 115 150 171 259 212 195 176 183 181 177 162 147 142 145 134 108 110 103 91 96 97 92 93 83 46 18 345 345 338 340 344 343 337 338 345 348 355 359 2 7 9 12 5 355 351
144 147 128 118 212 73 147 267 196 187 126 169 186 176 161 156 147 123 124 135 114 88 101 103 85 90 85 72 28 346 347 355 347 349 345 341 341 338 341 344 351 359 1 5 6 4 8 360 356